Flag for U.S.A. Weather past 2 weeks in South Bend, Indiana, U.S.A.

Now
57 °F

Sunny.


Feels Like: 55 °F
Forecast: 57 / 75 °F
Wind: 8 mph from North

Location: Michiana Regional Airport

Current Time: Jul 28, 2014 at 10:06:58 PM

Latest Report: Jul 28, 2014 at 8:54 PM


Visibility: 10 mi

Pressure: 30.06 "Hg

Humidity: 72%

Dew point: 48 °F

Location of South BendLocation

Historic Weather in South Bend — Graph

°F

South Bend temperature yesterday

Maximum temperature yesterday: 86 °F (at 1:54 PM)
Minimum temperature yesterday: 65 °F (at 10:54 PM)
Average temperature yesterday: 74 °F

Past Weeks' High & Low Weather Summary

 TemperatureHumidityPressure
High86 °F (Jul 27, 1:54 PM)93% (Jul 27, 4:04 AM)30.22 "Hg (Jul 27, 4:04 AM)
Low51 °F (Jul 17, 3:54 AM)34% (Jul 17, 12:54 PM)29.66 "Hg (Jul 27, 4:54 PM)
Average68 °F69%30.00 "Hg
* Reported Jul 13 8:54 PM — Jul 28 8:54 PM, South Bend, Weather by CustomWeather, © 2014

Note: Actual official high and low records may vary slightly from our data, if they occured in-between our weather recording intervals... More about our weather records

Advertising

South Bend weather history for previous 24 hours

 ConditionsComfort  
Time TempWeatherWind HumidityBarometerVisibility
8:54 PM
Jul 28
57 °FSunny.8 mph72%30.06 "Hg10 mi
7:54 PM60 °FSunny.13 mph65%30.05 "Hg10 mi
6:54 PM62 °FSunny.15 mph60%30.05 "Hg10 mi
5:54 PM63 °FPartly sunny.17 mph58%30.05 "Hg10 mi
4:54 PM62 °FPartly sunny.15 mph56%30.05 "Hg10 mi
3:54 PM62 °FPartly sunny.17 mph58%30.05 "Hg10 mi
2:54 PM63 °FMostly cloudy.15 mph60%30.03 "Hg10 mi
1:54 PM61 °FOvercast.16 mph70%30.03 "Hg10 mi
12:54 PM61 °FOvercast.16 mph72%30.04 "Hg10 mi
11:54 AM62 °FOvercast.17 mph73%30.02 "Hg10 mi
10:54 AM62 °FOvercast.14 mph73%30.00 "Hg10 mi
9:54 AM63 °FOvercast.13 mph73%29.99 "Hg10 mi
8:54 AM62 °FOvercast.15 mph75%29.97 "Hg10 mi
7:54 AM61 °FOvercast.14 mph78%29.94 "Hg10 mi
6:54 AM60 °FPassing clouds.12 mph83%29.92 "Hg10 mi
5:54 AM61 °FOvercast.14 mph81%29.89 "Hg10 mi
4:54 AM61 °FClear.10 mph83%29.86 "Hg10 mi
3:54 AM63 °FOvercast.15 mph81%29.85 "Hg10 mi
2:54 AM64 °FOvercast.16 mph81%29.83 "Hg10 mi
1:54 AM63 °FOvercast.18 mph81%29.82 "Hg10 mi
12:54 AM63 °FOvercast.20 mph81%29.82 "Hg10 mi
11:54 PM
Jul 27
65 °FOvercast.16 mph78%29.82 "Hg10 mi
10:54 PM65 °FClear.15 mph78%29.81 "Hg10 mi
Weather by CustomWeather, © 2014

See weather overviewHow to use our weather pages